This demonstration page uses our WeatherBlox Daily Observations layout. Learn more.

Left ArrowRight Arrow

39.92423, -83.80882

Hourly Observations for August 20, 2016

Temp ( °F °C ) Dew Point ( °F °C ) Humidity (%) Winds ( mph kmh ) Pressure ( in mb ) Visibility ( mi km ) Precip ( " mm )
12:11 am 00:11 Clear with Mist and Fog 66 19 66 19 100 100 N N/A 29.94 1014 5 8.0467 N/A
12:56 am 00:56 Clear with Mist and Fog 68 20 67 19.4 96 96 S 5 7 29.93 1014 6 9.65604 N/A
1:56 am 01:56 Mostly Clear with Mist and Fog 67 19.4 66 18.9 97 97 SSE 5 7 29.93 1014 4 6.43736 N/A
2:56 am 02:56 Clear with Mist and Fog 69 20.6 68 20 96 96 S 3 6 29.91 1013 5 8.0467 N/A
3:56 am 03:56 Clear with Mist and Fog 69 20.6 68 20 96 96 undefined N/A N/A 4 6.43736 N/A
4:56 am 04:56 Clear with Mist and Fog 68 20 68 20 100 100 S 3 6 29.9 1013 4 6.43736 N/A
5:43 am 05:43 Clear with Mist and Fog 68 20 66 19 94 94 S 5 7 29.88 1012 2.5 4.02335 N/A
5:56 am 05:56 Clear with Mist and Fog 68 20 67 19.4 96 96 S 3 6 29.89 1012 2.5 4.02335 N/A
6:49 am 06:49 Clear with Mist and Fog 68 20 66 19 94 94 S 5 7 29.88 1012 1.25 2.011675 N/A
6:56 am 06:56 Mostly Cloudy with Mist and Fog 68 20 67 19.4 96 96 S 3 6 29.9 1013 1 1.60934 N/A
7:01 am 07:01 Mostly Cloudy with Fog 68 20 66 19 94 94 S 3 6 29.88 1012 0.5 0.80467 N/A
7:38 am 07:38 Cloudy with Fog 68 20 68 20 100 100 undefined N/A N/A 0.25 0.402335 N/A
7:56 am 07:56 Cloudy with Fog 69 20.6 68 20 96 96 S 5 7 29.89 1012 0.25 0.402335 N/A
8:41 am 08:41 Cloudy with Fog 70 21 70 21 100 100 S 5 7 29.88 1012 0.5 0.80467 N/A
8:46 am 08:46 Cloudy with Mist and Fog 70 21 70 21 100 100 S 5 7 29.88 1012 1 1.60934 N/A
8:56 am 08:56 Cloudy with Mist and Fog 71 21.7 70 21.1 96 96 S 5 7 29.87 1012 2 3.21868 N/A
9:07 am 09:07 Cloudy with Mist and Fog 72 22 72 22 100 100 VRB 5 7 29.85 1011 3 4.82802 N/A
9:37 am 09:37 Cloudy 73 23 72 22 94 94 SSW 5 7 N/A 7 11.26538 N/A
9:56 am 09:56 Cloudy 74 23.3 72 22.2 94 94 S 6 9 N/A 10 16.0934 N/A
10:27 am 10:27 Mostly Cloudy 75 24 72 22 89 89 S 7 11 N/A 10 16.0934 N/A
10:56 am 10:56 Cloudy 76 24.4 71 21.7 85 85 S 8 13 29.85 1011 9 14.48406 N/A
11:07 am 11:07 Cloudy 77 25 72 22 83 83 S 9 15 29.83 1010 10 16.0934 N/A
11:56 am 11:56 Mostly Cloudy 77 25 70 21.1 79 79 S 10 17 N/A 10 16.0934 N/A
12:13 pm 12:13 Partly Cloudy 79 26 72 22 79 79 S 12 19 29.8 1009 10 16.0934 N/A
12:20 pm 12:20 Mostly Cloudy 79 26 72 22 79 79 S 13 20 29.77 1008 10 16.0934 N/A
12:56 pm 12:56 Cloudy 77 25 70 21.1 79 79 undefined N/A 29.81 1009 10 16.0934 N/A
1:12 pm 13:12 Partly Cloudy 81 27 72 22 74 74 undefined N/A N/A 10 16.0934 N/A
1:43 pm 13:43 Cloudy 79 26 72 22 79 79 S 9 15 29.77 1008 10 16.0934 N/A
1:56 pm 13:56 Cloudy 79 26.1 71 21.7 77 77 S 9 15 29.78 1009 10 16.0934 N/A
2:17 pm 14:17 Cloudy with Light Rain 75 24 73 23 94 94 S 8 13 29.74 1007 6 9.65604 0.05 1.27
2:24 pm 14:24 Cloudy 77 25 73 23 89 89 undefined N/A 29.74 1007 10 16.0934 0.05 1.27
2:56 pm 14:56 Mostly Cloudy 78 25.6 72 22.2 82 82 undefined N/A N/A 10 16.0934 0.05 1.27
3:29 pm 15:29 Cloudy with Rain 75 24 72 22 89 89 SSW 7 11 29.71 1006 8 12.87472 0.02 0.508
3:37 pm 15:37 Cloudy with Rain 73 23 72 22 94 94 SW 9 15 29.71 1006 10 16.0934 0.04 1.016
3:56 pm 15:56 Cloudy with Light Rain 75 23.9 72 22.2 90 90 S 7 11 29.75 1007 10 16.0934 0.05 1.27
4:10 pm 16:10 Mostly Cloudy 75 24 73 23 94 94 undefined N/A N/A 10 16.0934 N/A
4:36 pm 16:36 Mostly Cloudy 75 24 72 22 89 89 SSW 8 13 29.71 1006 10 16.0934 N/A
4:56 pm 16:56 Cloudy with Light Rain 76 24.4 73 22.8 91 91 undefined N/A 29.73 1007 10 16.0934 0.01 0.254
5:11 pm 17:11 Mostly Cloudy 79 26 73 23 84 84 S 10 17 N/A 10 16.0934 N/A
5:56 pm 17:56 Mostly Sunny 77 25 73 22.8 88 88 SSW 8 13 N/A 10 16.0934 N/A
6:56 pm 18:56 Mostly Cloudy with Rain 75 23.9 72 22.2 90 90 S 7 11 29.73 1007 10 16.0934 0.01 0.254
7:56 pm 19:56 Mostly Cloudy 73 22.8 72 22.2 96 96 S 9 15 29.72 1007 10 16.0934 0.04 1.016
8:56 pm 20:56 Cloudy with Rain 73 22.8 72 22.2 96 96 SSW 7 11 29.74 1007 9 14.48406 0.02 0.508
9:06 pm 21:06 Cloudy with Light Rain 73 23 72 22 94 94 SSW 6 9 29.71 1006 10 16.0934 0.01 0.254
9:27 pm 21:27 Cloudy with Rain 73 23 72 22 94 94 SSW 9 15 29.71 1006 10 16.0934 0.02 0.508
9:39 pm 21:39 Cloudy with Light Rain 72 22 72 22 100 100 SSW 9 15 29.74 1007 10 16.0934 0.03 0.762
9:56 pm 21:56 Cloudy with Light Rain 72 22.2 71 21.7 97 97 undefined N/A 29.75 1008 10 16.0934 0.04 1.016
9:58 pm 21:58 Cloudy with Light Rain 72 22 72 22 100 100 SSW 10 17 29.74 1007 10 16.0934 N/A
10:05 pm 22:05 Mostly Cloudy with Light Rain 72 22 72 22 100 100 SSW 9 15 29.74 1007 10 16.0934 0.01 0.254
10:13 pm 22:13 Mostly Cloudy with Light Rain 72 22 72 22 100 100 undefined N/A N/A 10 16.0934 0.01 0.254
10:17 pm 22:17 Mostly Cloudy with Light Rain 72 22 72 22 100 100 SSW 10 17 29.74 1007 10 16.0934 0.01 0.254
10:25 pm 22:25 Mostly Cloudy 72 22 70 21 94 94 SSW 9 15 29.74 1007 10 16.0934 0.01 0.254
10:34 pm 22:34 Mostly Cloudy 72 22 70 21 94 94 SSW 9 15 29.74 1007 10 16.0934 0.01 0.254
10:56 pm 22:56 Clear 70 21.1 69 20.6 97 97 SW 7 11 29.75 1007 10 16.0934 0.02 0.508
11:56 pm 23:56 Partly Cloudy 70 21.1 69 20.6 97 97 SW 7 11 29.74 1007 10 16.0934 N/A

Powered by AerisWeather